North Platte, NE

4:35 PM CDT on March 23, 2017 (GMT -0500)
North Platte Regional-Bird

Weather History for KLBF - October, 2011

Change the Weather History Date:

Thursday, October 13, 2011

  Actual Average Record
Temperature  
Mean Temperature 51 °F 50 °F  
Max Temperature 71 °F 66 °F 91 °F (1989)
Min Temperature 31 °F 35 °F 13 °F (1986)
Degree Days  
Heating Degree Days 14 15  
Month to date heating degree days 77 164  
Since 1 July heating degree days 252 335  
Cooling Degree Days 0 0  
Month to date cooling degree days 17 0  
Year to date cooling degree days 921 765  
Moisture  
Dew Point 34 °F    
Average Humidity 63    
Maximum Humidity 100    
Minimum Humidity 25    
Precipitation  
Precipitation 0.00 in 0.06 in 1.45 in (1880)
Month to date precipitation 1.78 0.69  
Year to date precipitation 22.88 18.32  
Snow  
Snow 0.00 in 0.00 in T in (2009)
Month to date snowfall 0.0 0.5  
Since 1 July snowfall 0.0 0.7  
Since 1 September snowfall 0.0 0.7  
Snow Depth 0.00 in    
Sea Level Pressure  
Sea Level Pressure 29.97 in    
Wind  
Wind Speed 7 mph (WNW)    
Max Wind Speed 16 mph    
Max Gust Speed 21 mph    
Visibility 10 miles    
Events      
T = Trace of Precipitation, MM = Missing Value Source: NWS Daily Summary

Daily Weather History Graph

Daily Weather History Graph

Search for Another Location

Airport or City:

Trip Planner

Search our weather history database for the weather conditions in past years. The results will help you decide how hot, cold, wet, or windy it might be!

Date:

Astronomy

Oct. 13, 2011 Rise Set
Actual Time 7:51 AM CDT 7:05 PM CDT
Civil Twilight 7:24 AM CDT 7:33 PM CDT
Nautical Twilight 6:52 AM CDT 8:04 PM CDT
Astronomical Twilight 6:20 AM CDT 8:36 PM CDT
Moon 7:40 PM CDT (10/13) 9:26 AM CDT (10/13)
Length of Visible Light 12h 08m
Length of Day
11h 13m
Full, 98% of the Moon is Illuminated
Oct 13
Full
Oct 19
Last Quarter
Oct 26
New
Nov 2
First Quarter
Nov 10
Full

Hourly Weather History & Observations

Time (CDT) Temp. Windchill Dew Point Humidity Pressure Visibility Wind Dir Wind Speed Gust Speed Precip Events Conditions
12:53 AM 42.1 °F 38.4 °F 35.1 °F 76% 30.00 in 10.0 mi West 5.8 mph - N/A   Clear
1:53 AM 36.0 °F 31.1 °F 33.1 °F 89% 30.01 in 10.0 mi West 5.8 mph - N/A   Clear
2:53 AM 35.1 °F 28.6 °F 32.0 °F 89% 30.01 in 10.0 mi NW 8.1 mph - N/A   Clear
3:53 AM 34.0 °F 27.2 °F 32.0 °F 92% 30.02 in 10.0 mi NW 8.1 mph - N/A   Clear
4:53 AM 33.1 °F 26.9 °F 30.9 °F 92% 30.02 in 10.0 mi NW 6.9 mph - N/A   Clear
5:53 AM 32.0 °F 25.6 °F 30.9 °F 96% 30.03 in 10.0 mi NW 6.9 mph - N/A   Clear
6:53 AM 32.0 °F 25.6 °F 30.0 °F 92% 30.04 in 10.0 mi NW 6.9 mph - N/A   Clear
7:53 AM 30.9 °F 26.2 °F 30.0 °F 96% 30.05 in 10.0 mi NNW 4.6 mph - N/A   Clear
8:53 AM 37.4 °F 32.8 °F 33.8 °F 87% 30.02 in 10.0 mi NW 5.8 mph - N/A   Clear
9:53 AM 46.9 °F - 37.0 °F 68% 30.04 in 10.0 mi WNW 10.4 mph - N/A   Clear
10:53 AM 54.0 °F - 39.0 °F 57% 30.03 in 10.0 mi West 5.8 mph - N/A   Clear
11:53 AM 63.0 °F - 37.9 °F 40% 29.98 in 10.0 mi West 8.1 mph - N/A   Clear
12:53 PM 66.9 °F - 35.1 °F 31% 29.93 in 10.0 mi West 15.0 mph 19.6 mph N/A   Clear
1:53 PM 69.1 °F - 35.1 °F 29% 29.93 in 10.0 mi West 10.4 mph - N/A   Clear
2:53 PM 71.6 °F - 35.6 °F 27% 29.90 in 10.0 mi WSW 10.4 mph - N/A   Clear
3:53 PM 71.1 °F - 33.1 °F 25% 29.87 in 10.0 mi West 8.1 mph - N/A   Clear
4:53 PM 70.0 °F - 33.1 °F 26% 29.87 in 10.0 mi WNW 10.4 mph - N/A   Clear
5:53 PM 66.9 °F - 36.0 °F 32% 29.88 in 10.0 mi WNW 10.4 mph - N/A   Clear
6:53 PM 60.8 °F - 33.8 °F 36% 29.90 in 10.0 mi North 8.1 mph - N/A   Clear
7:53 PM 55.0 °F - 34.0 °F 45% 29.93 in 10.0 mi NNE 9.2 mph - N/A   Clear
8:53 PM 50.0 °F - 34.0 °F 54% 29.96 in 10.0 mi Calm Calm - N/A   Clear
9:53 PM 46.0 °F 43.9 °F 37.0 °F 71% 29.97 in 10.0 mi SSE 4.6 mph - N/A   Clear
10:53 PM 41.0 °F - 35.1 °F 79% 29.99 in 10.0 mi Calm Calm - N/A   Clear
11:53 PM 44.1 °F - 39.0 °F 82% 29.99 in 10.0 mi Calm Calm - N/A   Clear